Location: Unspecified
(52.4292°N, 19.3359°E)
Time: 01:20:33
(UTC+02:00)

A-11 Canister half - Pass Details

Date: 24 May 2024
Orbit: 1514 x 1685 km, 47.2° (Epoch: 20 June)

Event Time Altitude Azimuth Distance (km) Brightness Sun altitude
Rises 00:21:44 0° 178° (S) 4,794 - -16.7°
Reaches altitude 10° 00:26:46 10° 157° (SSE) 3,776 - -16.7°
Exits shadow 00:29:11 13° 142° (SE) 3,489 10.4 -16.7°
Maximum altitude 00:31:20 15° 127° (SE) 3,393 10.4 -16.7°
Drops below altitude 10° 00:35:51 10° 98° (E) 3,725 10.9 -16.8°
Sets 00:40:42 0° 76° (ENE) 4,687 11.7 -16.8°
